Time,TemperatureF,DewpointF,PressureIn,WindDirection,WindDirectionDegrees,WindSpeedMPH,WindSpeedGustMPH,Humidity,HourlyPrecipIn,Conditions,Clouds,dailyrainin,SoftwareType,DateUTC
2013-02-06 00:02:00,63.0,57.0,30.07,West,281,0.0,0.0,81,0.00,,,0.00,,2013-02-06 05:02:00,
2013-02-06 00:12:00,63.0,57.0,30.07,West,281,0.0,0.0,81,0.00,,,0.00,,2013-02-06 05:12:00,
2013-02-06 00:22:00,63.0,57.0,30.06,West,281,0.0,0.0,80,0.00,,,0.00,,2013-02-06 05:22:00,
2013-02-06 00:32:00,63.0,57.0,30.06,West,281,0.0,0.0,80,0.00,,,0.00,,2013-02-06 05:32:00,
2013-02-06 00:41:00,63.0,57.0,30.06,West,281,0.0,0.0,80,0.00,,,0.00,,2013-02-06 05:41:00,
2013-02-06 00:53:00,63.0,57.0,30.06,West,281,0.0,0.0,81,0.00,,,0.00,,2013-02-06 05:53:00,
2013-02-06 01:01:00,63.0,57.0,30.06,West,281,0.0,0.0,81,0.00,,,0.00,,2013-02-06 06:01:00,
2013-02-06 01:11:00,63.0,57.0,30.06,West,281,0.0,0.0,81,0.00,,,0.00,,2013-02-06 06:11:00,
2013-02-06 01:22:00,62.0,56.0,30.05,West,281,0.0,0.0,82,0.00,,,0.00,,2013-02-06 06:22:00,
2013-02-06 01:32:00,62.0,56.0,30.05,West,281,0.0,0.0,82,0.00,,,0.00,,2013-02-06 06:32:00,
2013-02-06 01:42:00,62.0,56.0,30.05,West,281,0.0,0.0,82,0.00,,,0.00,,2013-02-06 06:42:00,
2013-02-06 01:52:00,62.0,56.0,30.05,West,281,0.0,0.0,81,0.00,,,0.00,,2013-02-06 06:52:00,
2013-02-06 02:01:00,61.0,55.0,30.05,West,281,0.0,0.0,81,0.00,,,0.00,,2013-02-06 07:01:00,
2013-02-06 02:11:00,61.0,55.0,30.05,West,281,0.0,0.0,81,0.00,,,0.00,,2013-02-06 07:11:00,
2013-02-06 02:22:00,60.0,54.0,30.05,West,281,0.0,0.0,82,0.00,,,0.00,,2013-02-06 07:22:00,
2013-02-06 02:32:00,59.0,54.0,30.04,West,281,0.0,0.0,83,0.00,,,0.00,,2013-02-06 07:32:00,
2013-02-06 02:42:00,59.0,54.0,30.04,West,281,0.0,0.0,83,0.00,,,0.00,,2013-02-06 07:42:00,
2013-02-06 02:52:00,58.0,53.0,30.04,West,281,0.0,0.0,83,0.00,,,0.00,,2013-02-06 07:52:00,
2013-02-06 03:01:00,58.0,53.0,30.03,West,281,0.0,0.0,84,0.00,,,0.00,,2013-02-06 08:01:00,
2013-02-06 03:11:00,58.0,53.0,30.03,West,281,0.0,0.0,84,0.00,,,0.00,,2013-02-06 08:11:00,
2013-02-06 03:21:00,57.0,52.0,30.03,West,281,0.0,0.0,84,0.00,,,0.00,,2013-02-06 08:21:00,
2013-02-06 03:31:00,57.0,52.0,30.04,West,281,0.0,0.0,84,0.00,,,0.00,,2013-02-06 08:31:00,
2013-02-06 03:42:00,57.0,52.0,30.04,West,281,0.0,0.0,84,0.00,,,0.00,,2013-02-06 08:42:00,
2013-02-06 03:53:00,57.0,52.0,30.04,West,281,0.0,0.0,84,0.00,,,0.00,,2013-02-06 08:53:00,
2013-02-06 04:01:00,56.0,51.0,30.04,West,281,0.0,0.0,84,0.00,,,0.00,,2013-02-06 09:01:00,
2013-02-06 04:11:00,56.0,51.0,30.04,West,281,0.0,0.0,84,0.00,,,0.00,,2013-02-06 09:11:00,
2013-02-06 04:21:00,56.0,51.0,30.04,West,281,0.0,0.0,84,0.00,,,0.00,,2013-02-06 09:21:00,
2013-02-06 04:32:00,56.0,51.0,30.04,West,281,0.0,0.0,84,0.00,,,0.00,,2013-02-06 09:32:00,
2013-02-06 04:42:00,56.0,51.0,30.04,West,281,0.0,0.0,84,0.00,,,0.00,,2013-02-06 09:42:00,
2013-02-06 04:52:00,56.0,51.0,30.05,West,281,0.0,0.0,84,0.00,,,0.00,,2013-02-06 09:52:00,
2013-02-06 05:01:00,55.0,50.0,30.05,West,281,0.0,0.0,84,0.00,,,0.00,,2013-02-06 10:01:00,
2013-02-06 05:11:00,55.0,50.0,30.05,West,281,0.0,0.0,84,0.00,,,0.00,,2013-02-06 10:11:00,
2013-02-06 05:21:00,55.0,50.0,30.06,West,281,0.0,0.0,84,0.00,,,0.00,,2013-02-06 10:21:00,
2013-02-06 05:31:00,55.0,51.0,30.06,West,281,0.0,0.0,85,0.00,,,0.00,,2013-02-06 10:31:00,
2013-02-06 05:42:00,55.0,51.0,30.06,West,281,0.0,0.0,85,0.00,,,0.00,,2013-02-06 10:42:00,
2013-02-06 05:52:00,55.0,51.0,30.06,West,281,0.0,0.0,85,0.00,,,0.00,,2013-02-06 10:52:00,
2013-02-06 06:01:00,55.0,51.0,30.06,West,281,0.0,0.0,85,0.00,,,0.00,,2013-02-06 11:01:00,
2013-02-06 06:11:00,55.0,51.0,30.06,West,281,0.0,0.0,85,0.00,,,0.00,,2013-02-06 11:11:00,
2013-02-06 06:22:00,56.0,52.0,30.06,West,281,0.0,0.0,85,0.00,,,0.00,,2013-02-06 11:22:00,
2013-02-06 06:32:00,56.0,52.0,30.06,West,281,0.0,0.0,85,0.00,,,0.00,,2013-02-06 11:32:00,
2013-02-06 06:42:00,56.0,52.0,30.06,West,281,0.0,0.0,85,0.00,,,0.00,,2013-02-06 11:42:00,
2013-02-06 06:53:00,55.0,51.0,30.07,West,281,0.0,0.0,85,0.00,,,0.00,,2013-02-06 11:53:00,
2013-02-06 07:02:00,54.0,50.0,30.08,West,281,0.0,0.0,85,0.00,,,0.00,,2013-02-06 12:02:00,
2013-02-06 07:12:00,54.0,50.0,30.08,West,281,0.0,0.0,85,0.00,,,0.00,,2013-02-06 12:12:00,
2013-02-06 07:22:00,54.0,50.0,30.08,West,281,0.0,0.0,85,0.00,,,0.00,,2013-02-06 12:22:00,
2013-02-06 07:32:00,54.0,50.0,30.09,West,281,0.0,0.0,85,0.00,,,0.00,,2013-02-06 12:32:00,
2013-02-06 07:42:00,54.0,50.0,30.09,West,281,0.0,0.0,85,0.00,,,0.00,,2013-02-06 12:42:00,
2013-02-06 07:52:00,54.0,50.0,30.09,West,281,0.0,0.0,85,0.00,,,0.00,,2013-02-06 12:52:00,
2013-02-06 08:01:00,55.0,51.0,30.09,West,281,0.0,0.0,85,0.00,,,0.00,,2013-02-06 13:01:00,
2013-02-06 08:12:00,55.0,51.0,30.09,West,281,0.0,0.0,85,0.00,,,0.00,,2013-02-06 13:12:00,
2013-02-06 08:22:00,57.0,53.0,30.10,West,281,0.0,0.0,85,0.00,,,0.00,,2013-02-06 13:22:00,
2013-02-06 08:32:00,59.0,54.0,30.10,West,281,0.0,0.0,84,0.00,,,0.00,,2013-02-06 13:32:00,
2013-02-06 08:42:00,59.0,54.0,30.10,West,281,0.0,0.0,84,0.00,,,0.00,,2013-02-06 13:42:00,
2013-02-06 08:52:00,62.0,57.0,30.10,West,281,0.0,2.0,83,0.00,,,0.00,,2013-02-06 13:52:00,
2013-02-06 09:02:00,64.0,56.0,30.11,West,281,0.0,3.0,75,0.00,,,0.00,,2013-02-06 14:02:00,
2013-02-06 09:11:00,64.0,56.0,30.11,West,281,0.0,3.0,75,0.00,,,0.00,,2013-02-06 14:11:00,
2013-02-06 09:22:00,67.0,57.0,30.11,West,281,0.0,0.0,71,0.00,,,0.00,,2013-02-06 14:22:00,
2013-02-06 09:32:00,69.0,57.0,30.11,West,281,0.0,1.0,65,0.00,,,0.00,,2013-02-06 14:32:00,
2013-02-06 09:42:00,71.0,57.0,30.12,South,176,0.0,3.0,62,0.00,,,0.00,,2013-02-06 14:42:00,
2013-02-06 09:52:00,71.0,57.0,30.12,South,176,0.0,3.0,62,0.00,,,0.00,,2013-02-06 14:52:00,
2013-02-06 10:02:00,72.0,57.0,30.13,South,175,0.0,1.0,60,0.00,,,0.00,,2013-02-06 15:02:00,
2013-02-06 10:11:00,74.0,60.0,30.12,South,175,0.0,3.0,61,0.00,,,0.00,,2013-02-06 15:11:00,
2013-02-06 10:21:00,74.0,60.0,30.12,South,175,0.0,3.0,61,0.00,,,0.00,,2013-02-06 15:21:00,
2013-02-06 10:32:00,75.0,61.0,30.12,South,171,1.0,5.0,61,0.00,,,0.00,,2013-02-06 15:32:00,
2013-02-06 10:42:00,75.0,61.0,30.12,South,171,1.0,5.0,61,0.00,,,0.00,,2013-02-06 15:42:00,
2013-02-06 10:52:00,75.0,61.0,30.12,South,190,1.0,7.0,62,0.00,,,0.00,,2013-02-06 15:52:00,
2013-02-06 11:01:00,76.0,61.0,30.12,South,183,0.0,6.0,60,0.00,,,0.00,,2013-02-06 16:01:00,
2013-02-06 11:11:00,76.0,61.0,30.12,South,183,0.0,6.0,60,0.00,,,0.00,,2013-02-06 16:11:00,
2013-02-06 11:21:00,77.0,62.0,30.11,SSE,161,3.0,7.0,59,0.00,,,0.00,,2013-02-06 16:21:00,
2013-02-06 11:32:00,77.0,62.0,30.11,WSW,253,1.0,9.0,60,0.00,,,0.00,,2013-02-06 16:32:00,
2013-02-06 11:42:00,77.0,62.0,30.11,WSW,253,1.0,9.0,60,0.00,,,0.00,,2013-02-06 16:42:00,
2013-02-06 11:52:00,77.0,61.0,30.10,SE,145,3.0,10.0,57,0.00,,,0.00,,2013-02-06 16:52:00,
2013-02-06 12:02:00,78.0,61.0,30.10,ESE,117,2.0,10.0,56,0.00,,,0.00,,2013-02-06 17:02:00,
2013-02-06 12:11:00,78.0,61.0,30.10,ESE,117,2.0,10.0,56,0.00,,,0.00,,2013-02-06 17:11:00,
2013-02-06 12:22:00,79.0,61.0,30.09,SSW,197,3.0,8.0,55,0.00,,,0.00,,2013-02-06 17:22:00,
2013-02-06 12:32:00,78.0,60.0,30.10,SW,235,3.0,11.0,54,0.00,,,0.00,,2013-02-06 17:32:00,
2013-02-06 12:42:00,80.0,61.0,30.09,East,98,1.0,6.0,52,0.00,,,0.00,,2013-02-06 17:42:00,
2013-02-06 12:52:00,80.0,61.0,30.09,East,98,1.0,6.0,52,0.00,,,0.00,,2013-02-06 17:52:00,
2013-02-06 13:01:00,80.0,61.0,30.09,SSW,205,2.0,7.0,53,0.00,,,0.00,,2013-02-06 18:01:00,
2013-02-06 13:11:00,80.0,60.0,30.08,West,267,3.0,9.0,50,0.00,,,0.00,,2013-02-06 18:11:00,
2013-02-06 13:23:00,80.0,60.0,30.08,West,267,3.0,9.0,50,0.00,,,0.00,,2013-02-06 18:23:00,
2013-02-06 13:32:00,81.0,61.0,30.07,SW,225,0.0,7.0,50,0.00,,,0.00,,2013-02-06 18:32:00,
2013-02-06 13:42:00,81.0,61.0,30.07,SW,225,0.0,7.0,50,0.00,,,0.00,,2013-02-06 18:42:00,
2013-02-06 13:52:00,79.0,59.0,30.06,SW,233,0.0,4.0,51,0.00,,,0.00,,2013-02-06 18:52:00,
2013-02-06 14:01:00,82.0,61.0,30.05,SSW,206,1.0,4.0,49,0.00,,,0.00,,2013-02-06 19:01:00,
2013-02-06 14:11:00,82.0,61.0,30.05,SSW,206,1.0,4.0,49,0.00,,,0.00,,2013-02-06 19:11:00,
2013-02-06 14:21:00,82.0,59.0,30.05,SSW,204,0.0,5.0,46,0.00,,,0.00,,2013-02-06 19:21:00,
2013-02-06 14:32:00,82.0,59.0,30.04,West,279,0.0,7.0,46,0.00,,,0.00,,2013-02-06 19:32:00,
2013-02-06 14:42:00,82.0,59.0,30.04,West,279,0.0,7.0,46,0.00,,,0.00,,2013-02-06 19:42:00,
2013-02-06 14:52:00,82.0,60.0,30.04,SW,219,2.0,9.0,48,0.00,,,0.00,,2013-02-06 19:52:00,
2013-02-06 15:01:00,81.0,59.0,30.04,SW,235,0.0,6.0,48,0.00,,,0.00,,2013-02-06 20:01:00,
2013-02-06 15:11:00,81.0,60.0,30.04,WSW,248,0.0,7.0,49,0.00,,,0.00,,2013-02-06 20:11:00,
2013-02-06 15:21:00,81.0,60.0,30.04,WSW,248,0.0,7.0,49,0.00,,,0.00,,2013-02-06 20:21:00,
2013-02-06 15:32:00,80.0,61.0,30.03,WSW,248,0.0,4.0,52,0.00,,,0.00,,2013-02-06 20:32:00,
2013-02-06 15:42:00,80.0,61.0,30.03,WSW,248,0.0,4.0,52,0.00,,,0.00,,2013-02-06 20:42:00,
2013-02-06 15:52:00,81.0,60.0,30.03,WSW,248,0.0,1.0,49,0.00,,,0.00,,2013-02-06 20:52:00,
2013-02-06 16:02:00,80.0,59.0,30.03,WSW,248,0.0,0.0,49,0.00,,,0.00,,2013-02-06 21:02:00,
2013-02-06 16:11:00,80.0,59.0,30.03,WSW,248,0.0,0.0,49,0.00,,,0.00,,2013-02-06 21:11:00,
2013-02-06 16:21:00,81.0,61.0,30.03,SSW,207,0.0,2.0,50,0.00,,,0.00,,2013-02-06 21:21:00,
2013-02-06 16:32:00,80.0,60.0,30.03,SSW,208,0.0,1.0,51,0.00,,,0.00,,2013-02-06 21:32:00,
2013-02-06 16:42:00,80.0,60.0,30.03,SSW,208,0.0,1.0,51,0.00,,,0.00,,2013-02-06 21:42:00,
2013-02-06 16:52:00,80.0,62.0,30.03,North,359,0.0,5.0,55,0.00,,,0.00,,2013-02-06 21:52:00,
2013-02-06 17:01:00,79.0,63.0,30.03,NNW,340,1.0,5.0,58,0.00,,,0.00,,2013-02-06 22:01:00,
2013-02-06 17:11:00,79.0,63.0,30.03,NNW,340,1.0,5.0,58,0.00,,,0.00,,2013-02-06 22:11:00,
2013-02-06 17:21:00,78.0,64.0,30.03,NW,318,1.0,7.0,62,0.00,,,0.00,,2013-02-06 22:21:00,
2013-02-06 17:32:00,79.0,64.0,30.03,NW,316,0.0,6.0,61,0.00,,,0.00,,2013-02-06 22:32:00,
2013-02-06 17:42:00,79.0,64.0,30.03,NW,316,0.0,6.0,61,0.00,,,0.00,,2013-02-06 22:42:00,
2013-02-06 17:52:00,78.0,64.0,30.04,NW,311,2.0,6.0,62,0.00,,,0.00,,2013-02-06 22:52:00,
2013-02-06 18:01:00,77.0,64.0,30.04,NW,312,2.0,6.0,64,0.00,,,0.00,,2013-02-06 23:01:00,
2013-02-06 18:11:00,77.0,64.0,30.04,NW,312,2.0,6.0,64,0.00,,,0.00,,2013-02-06 23:11:00,
2013-02-06 18:21:00,75.0,63.0,30.04,NW,304,0.0,4.0,67,0.00,,,0.00,,2013-02-06 23:21:00,
2013-02-06 18:32:00,74.0,63.0,30.04,NW,304,0.0,0.0,69,0.00,,,0.00,,2013-02-06 23:32:00,
2013-02-06 18:42:00,74.0,63.0,30.04,NW,304,0.0,0.0,69,0.00,,,0.00,,2013-02-06 23:42:00,
2013-02-06 18:52:00,73.0,63.0,30.04,NW,304,0.0,0.0,71,0.00,,,0.00,,2013-02-06 23:52:00,
2013-02-06 19:01:00,72.0,63.0,30.04,NW,304,0.0,0.0,73,0.00,,,0.00,,2013-02-07 00:01:00,
2013-02-06 19:11:00,72.0,63.0,30.04,NW,304,0.0,0.0,73,0.00,,,0.00,,2013-02-07 00:11:00,
2013-02-06 19:21:00,71.0,62.0,30.05,NW,304,0.0,0.0,74,0.00,,,0.00,,2013-02-07 00:21:00,
2013-02-06 19:32:00,71.0,63.0,30.05,NW,304,0.0,0.0,76,0.00,,,0.00,,2013-02-07 00:32:00,
2013-02-06 19:42:00,71.0,63.0,30.05,NW,304,0.0,0.0,76,0.00,,,0.00,,2013-02-07 00:42:00,
2013-02-06 19:52:00,70.0,62.0,30.05,NW,304,0.0,0.0,76,0.00,,,0.00,,2013-02-07 00:52:00,
2013-02-06 20:01:00,70.0,63.0,30.06,NW,304,0.0,0.0,78,0.00,,,0.00,,2013-02-07 01:01:00,
2013-02-06 20:11:00,70.0,63.0,30.06,NW,304,0.0,0.0,78,0.00,,,0.00,,2013-02-07 01:11:00,
2013-02-06 20:21:00,70.0,63.0,30.06,NW,304,0.0,0.0,78,0.00,,,0.00,,2013-02-07 01:21:00,
2013-02-06 20:32:00,69.0,62.0,30.07,NNE,13,0.0,3.0,79,0.00,,,0.00,,2013-02-07 01:32:00,
2013-02-06 20:42:00,69.0,62.0,30.07,NNE,13,0.0,3.0,79,0.00,,,0.00,,2013-02-07 01:42:00,
2013-02-06 20:52:00,69.0,62.0,30.07,NNE,13,0.0,0.0,79,0.00,,,0.00,,2013-02-07 01:52:00,
2013-02-06 21:01:00,69.0,63.0,30.07,NNE,13,0.0,0.0,80,0.00,,,0.00,,2013-02-07 02:01:00,
2013-02-06 21:11:00,69.0,63.0,30.07,NNE,13,0.0,0.0,80,0.00,,,0.00,,2013-02-07 02:11:00,
2013-02-06 21:21:00,69.0,63.0,30.07,NNE,13,0.0,0.0,80,0.00,,,0.00,,2013-02-07 02:21:00,
2013-02-06 21:32:00,69.0,63.0,30.08,NNE,13,0.0,0.0,80,0.00,,,0.00,,2013-02-07 02:32:00,
2013-02-06 21:42:00,69.0,63.0,30.08,NNE,13,0.0,0.0,80,0.00,,,0.00,,2013-02-07 02:42:00,
2013-02-06 21:52:00,69.0,63.0,30.08,NNE,13,0.0,0.0,80,0.00,,,0.00,,2013-02-07 02:52:00,
2013-02-06 22:02:00,68.0,62.0,30.09,NNE,13,0.0,0.0,81,0.00,,,0.00,,2013-02-07 03:02:00,
2013-02-06 22:11:00,68.0,62.0,30.09,NNE,13,0.0,0.0,82,0.00,,,0.00,,2013-02-07 03:11:00,
2013-02-06 22:21:00,68.0,62.0,30.09,NNE,13,0.0,0.0,82,0.00,,,0.00,,2013-02-07 03:21:00,
2013-02-06 22:31:00,68.0,63.0,30.09,NNE,13,0.0,0.0,83,0.00,,,0.00,,2013-02-07 03:31:00,
2013-02-06 22:42:00,68.0,63.0,30.09,NNE,13,0.0,0.0,83,0.00,,,0.00,,2013-02-07 03:42:00,
2013-02-06 22:52:00,68.0,63.0,30.09,NNE,13,0.0,0.0,83,0.00,,,0.00,,2013-02-07 03:52:00,
2013-02-06 23:01:00,67.0,62.0,30.09,NNE,13,0.0,0.0,83,0.00,,,0.00,,2013-02-07 04:01:00,
2013-02-06 23:11:00,67.0,62.0,30.09,NNE,13,0.0,0.0,83,0.00,,,0.00,,2013-02-07 04:11:00,
2013-02-06 23:22:00,67.0,62.0,30.09,NNE,13,0.0,0.0,83,0.00,,,0.00,,2013-02-07 04:22:00,
2013-02-06 23:32:00,67.0,62.0,30.08,NNE,13,0.0,0.0,83,0.00,,,0.00,,2013-02-07 04:32:00,
2013-02-06 23:42:00,67.0,62.0,30.08,NNE,13,0.0,0.0,83,0.00,,,0.00,,2013-02-07 04:42:00,
2013-02-06 23:53:00,67.0,62.0,30.08,NNE,13,0.0,0.0,83,0.00,,,0.00,,2013-02-07 04:53:00,